(338062) = 2002 OF30

Discovered at Palomar on 2002-07-21 by NEAT.

Orbit

Orbit type: Main Belt

Note: WebGL enabled browser required.

epoch2023-02-25.0
epoch JD2460000.5
perihelion date2021-11-19.90044
perihelion JD2459538.40044
argument of perihelion (°)48.44918
ascending node (°)281.85623
inclination (°)5.56222
eccentricity0.1558730
perihelion distance (AU)1.8357689
Tisserand w.r.t. Jupiter3.7
ΔV w.r.t. Earth (km/sec)8.5
semimajor axis (AU)2.1747543
mean anomaly (°)142.01169
mean daily motion (°/day)0.30731840
aphelion distance (AU)2.514
period (years)3.21
P-vector [x]0.86522974
P-vector [y]-0.48401695
P-vector [z]-0.13078641
Q-vector [x]0.49232033
Q-vector [y]0.77083496
Q-vector [z]0.40426990
absolute magnitude17.81
phase slope0.15
uncertainty0
referenceMPO 730650
observations used262
oppositions12
arc length (days)7481
first opposition used2002
last opposition used2023
residual rms (arc-secs)0.75
perturbers coarse indicatorM-v
perturbers precise indicator003Ek
first observation date used2002-07-21.0
last observation date used2023-01-13.0
computer nameMPCLINUX
JD of orbit computation2456789.271907
perihelion JD uncertainty (days)1.2858E-04
argument of perihelion uncertainty (°)7.8136E-05
ascending node uncertainty (°)7.1000E-05
inclination uncertainty (°)6.2454E-06
eccentricity uncertainty 7.3992E-08
perihelion distance uncertainty (AU)1.5449E-07
Minimum Orbit Intersection Distances (in AU)
for orbit epoch: 2460000.5, reference: E2023-A51
Mercury1.42971
Venus1.11744
Earth0.82856
Mars0.47404
Jupiter2.80158
Saturn6.67056
Uranus15.9514
Neptune27.775

Observations

269 total observations over interval: 2002 07 21.46041 – 2023 01 13.387696
These data are available for download (format description).

Date (UT) J2000 RA J2000 Dec Magn Location Ref
2002 07 21.46041 22 27 21.55 -02 55 44.4 19.5   644 – Palomar Mountain/NEAT MPS 233329
2002 07 21.47089 22 27 21.38 -02 55 40.7 19.7   644 – Palomar Mountain/NEAT MPS 233329
2002 07 21.48122 22 27 21.18 -02 55 37.5 19.3   644 – Palomar Mountain/NEAT MPS 233329
2002 08 08.32619 22 18 00.71 -01 52 00.1 18.9 R 699 – Lowell Observatory-LONEOS MPS 233329
2002 08 08.34021 22 18 00.06 -01 51 58.8   699 – Lowell Observatory-LONEOS MPS 233329
2002 08 08.35423 22 17 59.35 -01 51 56.3   699 – Lowell Observatory-LONEOS MPS 233329
2002 08 08.36826 22 17 58.60 -01 51 55.4   699 – Lowell Observatory-LONEOS MPS 233329
2002 08 16.42199 22 11 01.49 -01 46 40.7 19.3   644 – Palomar Mountain/NEAT MPS 234154
2002 08 16.43239 22 11 00.87 -01 46 40.7 19.2   644 – Palomar Mountain/NEAT MPS 234154
2002 08 16.44422 22 11 00.18 -01 46 41.0 19.0   644 – Palomar Mountain/NEAT MPS 234154
2002 08 26.35950 22 01 35.19 -01 57 43.9 18.7   644 – Palomar Mountain/NEAT MPS 234154
2002 08 26.37116 22 01 34.48 -01 57 45.1 18.7   644 – Palomar Mountain/NEAT MPS 234154
2002 08 26.38286 22 01 33.79 -01 57 46.3 19.0   644 – Palomar Mountain/NEAT MPS 234154
2002 09 13.15570 21 47 14.31 -02 47 04.1 19.9   644 – Palomar Mountain/NEAT MPS 234154
2002 09 13.17669 21 47 13.51 -02 47 08.3 19.6   644 – Palomar Mountain/NEAT MPS 234154
2002 09 13.19779 21 47 12.69 -02 47 12.4 19.5   644 – Palomar Mountain/NEAT MPS 234154
2006 12 12.37641 08 22 56.17 +18 36 38.0 21.7 V G96 – Mt. Lemmon Survey MPS 234154
2006 12 12.38895 08 22 55.84 +18 36 37.4 20.6 V G96 – Mt. Lemmon Survey MPS 234154
2006 12 12.40211 08 22 55.38 +18 36 36.9 21.7 V G96 – Mt. Lemmon Survey MPS 234154
2006 12 12.41830 08 22 54.87 +18 36 36.5 21.4 V G96 – Mt. Lemmon Survey MPS 234154
2006 12 27.26082 08 11 55.24 +18 33 54.2 20.5 V G96 – Mt. Lemmon Survey MPS 234154
2006 12 27.26780 08 11 54.81 +18 33 53.8 20.9 V G96 – Mt. Lemmon Survey MPS 234154
2006 12 27.27482 08 11 54.42 +18 33 54.3 21.0 V G96 – Mt. Lemmon Survey MPS 234154
2006 12 27.28493 08 11 53.77 +18 33 54.5 21.0 V G96 – Mt. Lemmon Survey MPS 234154
2007 01 09.20227 07 57 48.83 +18 42 24.4   691 – Steward Observatory, Kitt Peak-Spacewatch MPS 234154
2007 01 09.21224 07 57 48.10 +18 42 24.8   691 – Steward Observatory, Kitt Peak-Spacewatch MPS 234154
2007 01 09.22220 07 57 47.37 +18 42 25.6   691 – Steward Observatory, Kitt Peak-Spacewatch MPS 234154
2007 02 07.21795 07 25 29.89 +19 03 57.2 21.0 V G96 – Mt. Lemmon Survey MPS 234154
2007 02 07.22396 07 25 29.56 +19 03 57.2 20.9 V G96 – Mt. Lemmon Survey MPS 234154
2007 02 07.23007 07 25 29.24 +19 03 57.6 21.1 V G96 – Mt. Lemmon Survey MPS 234154
2007 02 07.23620 07 25 28.92 +19 03 57.7 20.3 V G96 – Mt. Lemmon Survey MPS 234154
2010 01 15.15472 05 33 51.52 +24 11 02.9 21.1 V 691 – Steward Observatory, Kitt Peak-Spacewatch MPS 311154
2010 01 15.16817 05 33 50.98 +24 11 00.5 21.2 V 691 – Steward Observatory, Kitt Peak-Spacewatch MPS 311154
2010 01 15.18161 05 33 50.33 +24 10 58.2 21.1 V 691 – Steward Observatory, Kitt Peak-Spacewatch MPS 311154
2011 04 13.31079 13 22 52.78 -18 56 04.2 20.9 V G96 – Mt. Lemmon Survey MPS 378574
2011 04 13.31859 13 22 52.28 -18 56 01.1 20.5 V G96 – Mt. Lemmon Survey MPS 378574
2011 04 13.32645 13 22 51.74 -18 55 58.5 20.5 V G96 – Mt. Lemmon Survey MPS 378574
2011 04 13.33428 13 22 51.24 -18 55 55.4 20.4 V G96 – Mt. Lemmon Survey MPS 378574
2012 10 16.41602 04 10 40.30 +28 59 28.8 20.8 V 691 – Steward Observatory, Kitt Peak-Spacewatch MPS 434981
2012 10 16.43390 04 10 39.81 +28 59 28.1 20.7 V 691 – Steward Observatory, Kitt Peak-Spacewatch MPS 434981
2012 10 16.45456 04 10 39.17 +28 59 28.1 21.0 V 691 – Steward Observatory, Kitt Peak-Spacewatch MPS 434981
2012 10 22.549152 04 07 19.190 +28 54 10.43 20.4 w F51 – Pan-STARRS 1, Haleakala MPS 437849
2012 10 22.563656 04 07 18.565 +28 54 09.08 20.4 w F51 – Pan-STARRS 1, Haleakala MPS 437849
2012 10 22.578113 04 07 17.940 +28 54 07.75 20.4 w F51 – Pan-STARRS 1, Haleakala MPS 437849
2012 10 22.592608 04 07 17.312 +28 54 06.38 20.3 w F51 – Pan-STARRS 1, Haleakala MPS 437849
2012 11 12.41188 03 46 53.83 +27 39 42.1 20.1 V 703 – Catalina Sky Survey MPS 443309
2012 11 12.41903 03 46 53.22 +27 39 38.4 20.7 V 703 – Catalina Sky Survey MPS 443309
2012 11 12.42623 03 46 52.71 +27 39 36.4 19.3 V 703 – Catalina Sky Survey MPS 443309
2012 11 12.43338 03 46 52.32 +27 39 33.4 19.9 V 703 – Catalina Sky Survey MPS 443309
2012 11 20.30105 03 37 28.23 +26 50 12.0 19.7 V G96 – Mt. Lemmon Survey MPS 444810
2012 11 20.30719 03 37 27.76 +26 50 09.7 19.8 V G96 – Mt. Lemmon Survey MPS 444810
2012 11 20.31328 03 37 27.33 +26 50 07.1 19.5 V G96 – Mt. Lemmon Survey MPS 444810
2012 11 20.31937 03 37 26.90 +26 50 04.5 19.6 V G96 – Mt. Lemmon Survey MPS 444810
2012 12 12.10517 03 16 23.44 +24 11 42.6 20.5 V 691 – Steward Observatory, Kitt Peak-Spacewatch MPS 447689
2012 12 12.16827 03 16 20.84 +24 11 17.1 20.7 V 691 – Steward Observatory, Kitt Peak-Spacewatch MPS 447689
2012 12 12.21601 03 16 18.82 +24 10 57.3 20.3 V 691 – Steward Observatory, Kitt Peak-Spacewatch MPS 447689
2014 03 24.40427 11 40 45.476 -07 54 09.00 20.8 w F51 – Pan-STARRS 1, Haleakala MPS 508417
2014 03 24.41657 11 40 44.692 -07 54 04.18 20.9 w F51 – Pan-STARRS 1, Haleakala MPS 508417
2014 03 24.42886 11 40 43.908 -07 53 59.66 20.7 w F51 – Pan-STARRS 1, Haleakala MPS 508417
2014 03 24.44118 11 40 43.116 -07 53 54.96 20.9 w F51 – Pan-STARRS 1, Haleakala MPS 508417
2014 04 28.30618 11 15 58.053 -04 20 20.21 21.3 w F51 – Pan-STARRS 1, Haleakala MPS 513708
2014 04 28.31848 11 15 57.839 -04 20 17.05 21.6 w F51 – Pan-STARRS 1, Haleakala MPS 513708
2014 04 28.33075 11 15 57.600 -04 20 13.89 21.4 w F51 – Pan-STARRS 1, Haleakala MPS 513708
2014 04 28.34304 11 15 57.392 -04 20 10.63 21.3 w F51 – Pan-STARRS 1, Haleakala MPS 513708
2015 09 08.76966 01 06 20.29 +18 32 14.0 20.0 R D29 – Purple Mountain Observatory, XuYi Station MPS 626533
2015 09 08.78288 01 06 19.88 +18 32 15.2 19.7 R D29 – Purple Mountain Observatory, XuYi Station MPS 626533
2015 09 08.79611 01 06 19.49 +18 32 16.0 19.1 R D29 – Purple Mountain Observatory, XuYi Station MPS 626533
2015 09 20.36519 00 58 55.89 +18 30 48.9 19.8 V 703 – Catalina Sky Survey MPS 631700
2015 09 20.37028 00 58 55.58 +18 30 48.3 20.1 V 703 – Catalina Sky Survey MPS 631700
2015 09 20.37535 00 58 55.34 +18 30 46.4 19.3 V 703 – Catalina Sky Survey MPS 631700
2015 09 20.38041 00 58 55.06 +18 30 46.2 19.7 V 703 – Catalina Sky Survey MPS 631700
2015 09 21.37493 00 58 06.55 +18 28 38.5 19.8 r G45 – Space Surveillance Telescope, Atom Site MPS 631700
2015 09 21.38130 00 58 06.20 +18 28 37.8 20.1 r G45 – Space Surveillance Telescope, Atom Site MPS 631700
2015 09 21.38136 00 58 06.19 +18 28 37.3 19.6 r G45 – Space Surveillance Telescope, Atom Site MPS 631700
2015 09 21.38722 00 58 05.86 +18 28 36.5 19.8 r G45 – Space Surveillance Telescope, Atom Site MPS 631700
2015 09 21.39367 00 58 05.54 +18 28 35.7 20.0 r G45 – Space Surveillance Telescope, Atom Site MPS 631700
2015 09 21.39374 00 58 05.53 +18 28 36.0 20.2 r G45 – Space Surveillance Telescope, Atom Site MPS 631700
2015 09 24.24772 00 55 39.87 +18 20 43.8 19.0 V 703 – Catalina Sky Survey MPS 631700
2015 09 24.25273 00 55 39.51 +18 20 42.6 18.9 V 703 – Catalina Sky Survey MPS 631700
2015 09 24.25773 00 55 39.23 +18 20 40.6 19.4 V 703 – Catalina Sky Survey MPS 631700
2015 09 24.26273 00 55 38.98 +18 20 40.5 18.9 V 703 – Catalina Sky Survey MPS 631700
2015 10 01.76443 00 48 38.77 +17 48 22.8 19.1 R D29 – Purple Mountain Observatory, XuYi Station MPS 630984
2015 10 01.77975 00 48 37.82 +17 48 17.9 18.7 R D29 – Purple Mountain Observatory, XuYi Station MPS 630984
2015 10 01.79507 00 48 36.92 +17 48 12.6 19.3 R D29 – Purple Mountain Observatory, XuYi Station MPS 630984
2015 10 03.25963 00 47 11.99 +17 40 07.5 19.3 V 703 – Catalina Sky Survey MPS 630984
2015 10 03.28038 00 47 10.80 +17 40 00.4 19.0 V 703 – Catalina Sky Survey MPS 630984
2015 10 03.28438 00 47 10.53 +17 39 59.0 19.4 V 703 – Catalina Sky Survey MPS 630984
2015 10 09.71864 00 40 55.59 +16 58 32.4 19.8 R D29 – Purple Mountain Observatory, XuYi Station MPS 635300
2015 10 09.71953 00 40 55.50 +16 58 32.0 19.5 R D29 – Purple Mountain Observatory, XuYi Station MPS 635300
